Location: Julian California
(33.0790°N, 116.6010°W)
Time: 02:45:17
(UTC-07:00)

NOAA 11 - Pass Details

Date: 14 June 2018
Orbit: 832 x 850 km, 98.5° (Epoch: 21 October)

Event Time Altitude Azimuth Distance (km) Brightness Sun altitude
Exits shadow 21:05:33 - 169° (S) 2,535 6.2 -12.8°
Reaches altitude 10° 21:05:48 10° 170° (S) 2,438 6.2 -12.9°
Maximum altitude 21:11:13 81° 257° (WSW) 847 4.2 -13.7°
Drops below altitude 10° 21:16:39 10° 345° (NNW) 2,444 7.5 -14.6°
Sets 21:19:00 0° 347° (NNW) 3,380 8.3 -15.0°
